Location: Washington
(38.8950°N, 77.0370°W)
Time: 03:12:25
(UTC-05:00)

ISS - All Passes

Search period start: 08 February 2016 00:00
Search period end: 18 February 2016 00:00
Orbit: 399 x 408 km, 51.6° (Epoch: 07 February)

Date Brightness Start Highest point End Pass type
(mag) Time Alt. Az. Time Alt. Az. Time Alt. Az.
08 Feb - 00:33:52 10° W 00:35:52 15° SW 00:37:52 10° SSW night (unlit)
08 Feb - 15:35:30 10° SSW 15:38:21 28° SE 15:41:12 10° ENE daylight
08 Feb - 17:11:50 10° W 17:14:45 30° NNW 17:17:40 10° NNE daylight
08 Feb - 18:51:29 10° NNW 18:52:02 10° N 18:52:36 10° N visible
08 Feb - 20:29:22 10° N 20:29:44 10° N 20:30:04 10° NNE visible
08 Feb - 22:04:10 10° NNW 22:07:02 28° NNE 22:09:54 10° E night (unlit)
08 Feb - 23:40:34 10° WNW 23:43:28 30° SW 23:46:22 10° SSE night (unlit)
09 Feb - 14:44:05 10° SSE 14:45:56 14° SE 14:47:48 10° E daylight
09 Feb - 16:18:53 10° WSW 16:22:05 53° NW 16:25:16 10° NE daylight
09 Feb - 17:57:32 10° NW 17:59:07 13° NNW 18:00:43 10° NNE daylight
09 Feb - 21:11:51 10° NNW 21:14:15 19° NNE 21:16:39 10° ENE night (unlit)
09 Feb - 22:47:45 10° WNW 22:50:58 65° SW 22:54:10 10° SE night (unlit)
10 Feb - 15:26:12 10° SW 15:29:27 76° SE 15:32:42 10° NE daylight
10 Feb - 17:03:57 10° WNW 17:06:13 17° NNW 17:08:30 10° NNE daylight
10 Feb - 20:19:38 10° NNW 20:21:23 14° NNE 20:23:07 10° NE visible
10 Feb - 21:55:09 10° NW 21:58:22 61° NE 22:01:34 10° ESE night (unlit)
10 Feb - 23:33:00 10° WSW 23:34:26 12° SW 23:35:51 10° SSW night (unlit)
11 Feb - 14:33:54 10° SSW 14:36:54 35° SE 14:39:54 10° ENE daylight
11 Feb - 16:10:36 10° W 16:13:23 26° NNW 16:16:11 10° NNE daylight
11 Feb - 19:27:35 10° N 19:28:25 11° NNE 19:29:16 10° NNE visible
11 Feb - 21:02:40 10° NW 21:05:39 33° NNE 21:08:37 10° E night (unlit)
11 Feb - 22:39:18 10° WNW 22:42:00 24° SW 22:44:41 10° S night (unlit)
12 Feb - 13:42:07 10° S 13:44:24 18° SE 13:46:41 10° E daylight
12 Feb - 15:17:30 10° WSW 15:20:37 43° NW 15:23:45 10° NE daylight
12 Feb - 16:56:23 10° NW 16:57:44 12° NNW 16:59:04 10° N daylight
12 Feb - 20:10:17 10° NNW 20:12:50 21° NNE 20:15:24 10° ENE visible
12 Feb - 21:46:19 10° WNW 21:49:28 50° SW 21:52:36 10° SE night (unlit)
13 Feb - 14:24:39 10° SW 14:27:54 86° NW 14:31:10 10° NE daylight
13 Feb - 16:02:40 10° WNW 16:04:46 16° NNW 16:06:51 10° NNE daylight
13 Feb - 19:17:57 10° NNW 19:19:55 15° NNE 19:21:53 10° ENE visible
13 Feb - 20:53:34 10° NW 20:56:49 76° NE 21:00:03 10° SE visible
14 Feb - 13:32:09 10° SSW 13:35:16 44° SE 13:38:23 10° ENE daylight
14 Feb - 15:09:12 10° W 15:11:51 23° NNW 15:14:31 10° NNE daylight
14 Feb - 18:25:45 10° N 18:26:55 11° NNE 18:28:05 10° NE visible
14 Feb - 20:01:00 10° NW 20:04:05 39° NNE 20:07:08 10° ESE visible
14 Feb - 21:37:54 10° W 21:40:20 20° SW 21:42:46 10° S night (unlit)
15 Feb - 12:40:06 10° S 12:42:41 22° SE 12:45:17 10° E daylight
15 Feb - 14:15:56 10° WSW 14:18:59 36° NNW 14:22:02 10° NE daylight
15 Feb - 15:55:07 10° NNW 15:56:10 11° NNW 15:57:14 10° N daylight
15 Feb - 19:08:31 10° NNW 19:11:13 24° NNE 19:13:55 10° E visible
15 Feb - 20:44:41 10° WNW 20:47:46 40° SW 20:50:49 10° SSE visible
16 Feb - 11:49:12 10° SE 11:50:11 11° SE 11:51:08 10° ESE daylight
16 Feb - 13:22:58 10° WSW 13:26:12 69° NW 13:29:27 10° NE daylight
16 Feb - 15:01:14 10° NW 15:03:07 14° NNW 15:05:01 10° NNE daylight
16 Feb - 18:16:06 10° NNW 18:18:16 16° NNE 18:20:27 10° ENE visible
16 Feb - 19:51:50 10° NW 19:55:05 86° SW 19:58:20 10° SE visible
17 Feb - 12:30:16 10° SW 12:33:28 56° SE 12:36:41 10° ENE daylight
17 Feb - 14:07:37 10° WNW 14:10:08 20° NNW 14:12:38 10° NNE daylight
17 Feb - 17:23:47 10° N 17:25:14 12° NNE 17:26:40 10° NE daylight
17 Feb - 18:59:09 10° NW 19:02:19 47° NE 19:05:27 10° ESE visible
17 Feb - 20:36:22 10° W 20:38:29 16° SW 20:40:35 10° S visible
